KB2AHZ Weather Reports


time (UTC)temp
F
wind
direction
speed
knots
gust
knots
rain 1hr
in
rain 24hr
in
rain mn
in
humidity
%
barometer
mb
20260506033403 70 240 3.5 8.7 0.00 0.00 0.00 65 1014.8
20260506032859 70 238 4.3 8.7 0.00 0.00 0.00 65 1014.7
20260506032356 70 279 1.7 8.7 0.00 0.00 0.00 64 1014.9
20260506031853 70 235 2.6 6.1 0.00 0.00 0.00 64 1014.7
20260506031350 70 125 1.7 8.7 0.00 0.00 0.00 64 1014.7
20260506030848 71 242 3.5 18.2 0.00 0.00 0.00 63 1014.8
20260506030346 71 220 6.1 13.0 0.00 0.00 0.00 63 1014.6
20260506025843 71 68 3.5 10.4 0.00 0.00 0.00 63 1014.6
20260506025339 71 292 2.6 10.4 0.00 0.00 0.00 62 1014.6
20260506024836 71 306 2.6 5.2 0.00 0.00 0.00 62 1014.8
20260506024333 71 231 1.7 4.3 0.00 0.00 0.00 62 1014.6
20260506023829 71 216 1.7 7.0 0.00 0.00 0.00 61 1014.6
20260506023326 71 223 3.5 10.4 0.00 0.00 0.00 61 1014.7
20260506022823 71 296 1.7 6.1 0.00 0.00 0.00 61 1014.5
20260506022320 71 258 4.3 8.7 0.00 0.00 0.00 61 1014.6
20260506021819 71 264 4.3 10.4 0.00 0.00 0.00 60 1014.6
20260506021315 71 288 3.5 5.2 0.00 0.00 0.00 60 1014.5
20260506020812 72 244 1.7 3.5 0.00 0.00 0.00 60 1014.5
20260506020310 72 235 3.5 4.3 0.00 0.00 0.00 59 1014.5
20260506015807 72 290 1.7 4.3 0.00 0.00 0.00 59 1014.1
20260506015306 72 242 2.6 6.1 0.00 0.00 0.00 59 1014.2
20260506014801 72 240 0.9 7.8 0.00 0.00 0.00 58 1014.0
20260506014258 72 253 3.5 7.0 0.00 0.00 0.00 58 1014.2
20260506013755 72 231 2.6 7.8 0.00 0.00 0.00 57 1013.9
20260506013252 72 299 1.7 7.8 0.00 0.00 0.00 57 1013.9
20260506012748 72 304 1.7 4.3 0.00 0.00 0.00 57 1014.1
20260506012245 72 227 2.6 3.5 0.00 0.00 0.00 57 1014.0
20260506011743 72 240 2.6 4.3 0.00 0.00 0.00 56 1014.0
20260506011239 72 237 2.6 3.5 0.00 0.00 0.00 56 1013.9
20260506010737 72 206 3.5 7.8 0.00 0.00 0.00 56 1013.6
20260506010234 73 226 1.7 3.5 0.00 0.00 0.00 55 1013.8
20260506005731 73 255 1.7 4.3 0.00 0.00 0.00 55 1013.7
20260506005228 73 253 0.0 5.2 0.00 0.00 0.00 54 1013.4
20260506004724 73 277 3.5 4.3 0.00 0.00 0.00 54 1013.4
20260506004222 73 218 0.0 4.3 0.00 0.00 0.00 53 1013.7
20260506003717 74 212 3.5 5.2 0.00 0.00 0.00 53 1013.6
20260506003214 74 248 2.6 7.0 0.00 0.00 0.00 52 1013.5
20260506002710 74 280 1.7 4.3 0.00 0.00 0.00 52 1013.7
20260506002206 74 258 0.0 2.6 0.00 0.00 0.00 52 1013.3
20260506001702 74 237 1.7 2.6 0.00 0.00 0.00 52 1013.3
20260506001200 74 239 2.6 4.3 0.00 0.00 0.00 52 1013.3
20260506000657 74 211 1.7 3.5 0.00 0.00 0.00 51 1013.3
20260506000154 75 216 0.0 7.0 0.00 0.00 0.00 51 1013.2
20260505235652 75 241 0.9 4.3 0.00 0.00 0.00 50 1013.2
20260505235149 75 265 1.7 5.2 0.00 0.00 0.00 50 1013.2
20260505234646 76 180 0.0 2.6 0.00 0.00 0.00 49 1013.3
20260505234143 76 175 1.7 7.0 0.00 0.00 0.00 49 1013.1
20260505233640 76 264 1.7 5.2 0.00 0.00 0.00 48 1013.1
20260505233137 77 220 2.6 8.7 0.00 0.00 0.00 48 1013.3
20260505232635 77 268 2.6 5.2 0.00 0.00 0.00 47 1013.4
20260505232132 77 224 6.1 10.4 0.00 0.00 0.00 47 1013.2
20260505231629 77 244 3.5 7.8 0.00 0.00 0.00 47 1013.1
20260505231128 77 265 3.5 3.5 0.00 0.00 0.00 47 1013.2
20260505230626 78 267 1.7 5.2 0.00 0.00 0.00 46 1013.1
20260505230121 78 194 0.9 10.4 0.00 0.00 0.00 45 1013.0
20260505225618 78 199 5.2 8.7 0.00 0.00 0.00 45 1013.1
20260505225114 78 264 4.3 6.1 0.00 0.00 0.00 44 1013.2
20260505224611 78 273 2.6 6.1 0.00 0.00 0.00 44 1013.4
20260505224108 78 292 2.6 14.8 0.00 0.00 0.00 43 1013.3
20260505223605 79 270 4.3 9.6 0.00 0.00 0.00 44 1013.2
20260505223101 79 229 1.7 7.8 0.00 0.00 0.00 44 1013.4
20260505222558 79 15 1.7 13.9 0.00 0.00 0.00 44 1013.2
20260505222054 79 265 2.6 4.3 0.00 0.00 0.00 45 1013.2
20260505221551 78 231 2.6 5.2 0.00 0.00 0.00 44 1013.3
20260505221048 79 330 2.6 6.1 0.00 0.00 0.00 44 1013.5
20260505220545 79 246 2.6 9.6 0.00 0.00 0.00 44 1013.3
20260505220043 79 254 3.5 10.4 0.00 0.00 0.00 44 1013.4
20260505215541 79 283 4.3 13.9 0.00 0.00 0.00 44 1013.2
20260505215038 79 272 4.3 8.7 0.00 0.00 0.00 44 1013.1
20260505214536 78 261 4.3 9.6 0.00 0.00 0.00 44 1013.4
20260505214033 79 259 3.5 17.4 0.00 0.00 0.00 43 1013.2
20260505213531 79 224 6.1 14.8 0.00 0.00 0.00 43 1013.2
20260505213027 79 270 3.5 11.3 0.00 0.00 0.00 43 1013.4
20260505212523 80 245 4.3 11.3 0.00 0.00 0.00 42 1013.0
20260505212020 80 252 4.3 7.8 0.00 0.00 0.00 42 1013.3
20260505211518 81 244 0.0 14.8 0.00 0.00 0.00 41 1013.4
20260505211014 81 278 7.0 9.6 0.00 0.00 0.00 40 1013.2
20260505210511 81 245 4.3 8.7 0.00 0.00 0.00 40 1013.3
20260505210008 81 249 7.0 13.0 0.00 0.00 0.00 40 1013.5
20260505205506 82 243 4.3 12.2 0.00 0.00 0.00 39 1013.4
20260505205003 81 277 4.3 10.4 0.00 0.00 0.00 39 1013.4
20260505204501 81 226 6.1 11.3 0.00 0.00 0.00 39 1013.6
20260505203957 82 261 2.6 7.0 0.00 0.00 0.00 39 1013.7
20260505203454 82 262 3.5 9.6 0.00 0.00 0.00 40 1013.4
20260505202950 81 290 2.6 13.9 0.00 0.00 0.00 40 1013.4
20260505202447 81 195 3.5 12.2 0.00 0.00 0.00 40 1013.7
20260505201943 81 229 8.7 14.8 0.00 0.00 0.00 40 1013.4
20260505201440 81 218 4.3 20.0 0.00 0.00 0.00 39 1013.6
20260505200938 81 264 6.1 16.5 0.00 0.00 0.00 39 1013.6
20260505200436 81 261 6.1 10.4 0.00 0.00 0.00 40 1013.7
20260505195931 81 257 6.1 10.4 0.00 0.00 0.00 40 1013.6
20260505195428 80 246 8.7 15.6 0.00 0.00 0.00 39 1014.0
20260505194926 80 250 5.2 13.0 0.00 0.00 0.00 40 1014.1
20260505194423 81 253 4.3 9.6 0.00 0.00 0.00 39 1014.0
20260505193923 81 266 4.3 12.2 0.00 0.00 0.00 38 1014.1
20260505193421 81 248 4.3 12.2 0.00 0.00 0.00 37 1013.8
20260505192918 81 286 8.7 8.7 0.00 0.00 0.00 37 1014.1
20260505192416 81 291 9.6 10.4 0.00 0.00 0.00 38 1014.1
20260505191914 82 270 4.3 13.9 0.00 0.00 0.00 38 1014.0
20260505191412 82 200 3.5 26.1 0.00 0.00 0.00 37 1014.3
20260505190909 82 189 7.8 8.7 0.00 0.00 0.00 38 1014.2
20260505190405 81 345 1.7 13.9 0.00 0.00 0.00 38 1014.2
20260505185859 81 266 6.1 13.9 0.00 0.00 0.00 36 1014.6
20260505185356 81 342 1.7 7.8 0.00 0.00 0.00 37 1014.6
20260505184853 81 254 4.3 10.4 0.00 0.00 0.00 37 1014.5
20260505184350 82 288 3.5 12.2 0.00 0.00 0.00 37 1014.6
20260505183847 82 250 4.3 16.5 0.00 0.00 0.00 37 1014.9
20260505183344 83 311 1.7 9.6 0.00 0.00 0.00 37 1014.9
20260505182840 82 291 4.3 12.2 0.00 0.00 0.00 37 1014.9
20260505182337 82 219 1.7 17.4 0.00 0.00 0.00 37 1015.1
20260505181834 82 286 4.3 9.6 0.00 0.00 0.00 38 1015.0
20260505181331 81 316 3.5 8.7 0.00 0.00 0.00 37 1015.3
20260505180827 81 284 6.1 14.8 0.00 0.00 0.00 36 1015.3
20260505180324 83 283 7.8 13.9 0.00 0.00 0.00 36 1015.3
20260505175821 82 189 2.6 10.4 0.00 0.00 0.00 39 1015.2
20260505175317 83 238 7.0 11.3 0.00 0.00 0.00 38 1015.3
20260505174814 82 247 7.0 11.3 0.00 0.00 0.00 37 1015.2
20260505174311 82 287 4.3 8.7 0.00 0.00 0.00 37 1015.6
20260505173807 81 165 6.1 13.0 0.00 0.00 0.00 37 1015.6
20260505173303 81 325 2.6 13.9 0.00 0.00 0.00 39 1015.4
20260505172801 80 247 2.6 17.4 0.00 0.00 0.00 37 1015.7
20260505172258 81 246 4.3 11.3 0.00 0.00 0.00 37 1015.7
20260505171753 80 295 4.3 14.8 0.00 0.00 0.00 37 1015.5
20260505171250 80 208 4.3 8.7 0.00 0.00 0.00 39 1015.9
20260505170746 80 287 3.5 9.6 0.00 0.00 0.00 39 1015.9
20260505170244 80 236 2.6 13.0 0.00 0.00 0.00 40 1016.0
20260505165738 80 250 4.3 8.7 0.00 0.00 0.00 39 1015.7
20260505165235 80 237 2.6 10.4 0.00 0.00 0.00 39 1015.9
20260505164730 80 274 5.2 6.1 0.00 0.00 0.00 40 1016.1
20260505164228 79 286 5.2 11.3 0.00 0.00 0.00 39 1015.8
20260505163726 80 303 3.5 10.4 0.00 0.00 0.00 40 1015.9
20260505163224 78 284 4.3 13.9 0.00 0.00 0.00 40 1015.9
20260505162721 79 235 7.0 12.2 0.00 0.00 0.00 42 1016.0
20260505162218 79 290 3.5 6.1 0.00 0.00 0.00 44 1016.3
20260505161715 78 234 4.3 10.4 0.00 0.00 0.00 43 1016.0
20260505161213 78 255 2.6 8.7 0.00 0.00 0.00 45 1016.2
20260505160710 78 270 5.2 14.8 0.00 0.00 0.00 44 1016.3
20260505160207 79 238 5.2 13.0 0.00 0.00 0.00 44 1016.5
20260505153146 77 272 3.5 7.0 0.00 0.00 0.00 48 1016.6
20260505152643 77 228 4.3 7.0 0.00 0.00 0.00 49 1016.9
20260505152139 76 242 2.6 4.3 0.00 0.00 0.00 50 1016.8
20260505151634 76 308 3.5 7.0 0.00 0.00 0.00 52 1016.7
20260505151132 75 250 6.1 7.0 0.00 0.00 0.00 53 1016.8
20260505150628 75 197 2.6 7.0 0.00 0.00 0.00 53 1016.9
20260505150125 74 226 2.6 6.1 0.00 0.00 0.00 53 1016.8
20260505140554 71 283 4.3 7.0 0.00 0.00 0.00 59 1016.5
20260505125007 65 177 3.5 9.6 0.00 0.00 0.00 69 1016.8
20260505124504 65 208 2.6 7.0 0.00 0.00 0.00 68 1016.9
20260505124000 65 221 4.3 5.2 0.00 0.00 0.00 69 1016.7
20260505123457 65 244 4.3 11.3 0.00 0.00 0.00 68 1016.6
20260505122953 65 254 3.5 8.7 0.00 0.00 0.00 69 1017.0
20260505122450 64 224 1.7 9.6 0.00 0.00 0.00 70 1016.4
20260505121947 64 256 1.7 6.1 0.00 0.00 0.00 71 1016.6
20260505121443 64 201 2.6 7.8 0.00 0.00 0.00 70 1016.7
20260505120939 64 221 3.5 7.0 0.00 0.00 0.00 71 1016.4
20260505120436 63 221 2.6 7.8 0.00 0.00 0.00 72 1016.4
20260505115935 63 205 2.6 6.1 0.00 0.00 0.00 73 1016.4
20260505115432 62 221 1.7 7.0 0.00 0.00 0.00 73 1016.3
20260505114930 62 221 3.5 7.0 0.00 0.00 0.00 73 1016.4
20260505114426 62 223 0.0 4.3 0.00 0.00 0.00 74 1016.4
20260505113922 61 198 0.0 7.8 0.00 0.00 0.00 75 1016.5
20260505113419 61 218 2.6 4.3 0.00 0.00 0.00 75 1016.1
20260505112915 60 221 2.6 5.2 0.00 0.00 0.00 77 1016.2
20260505112413 60 219 3.5 4.3 0.00 0.00 0.00 78 1016.4
20260505111909 59 186 1.7 7.8 0.00 0.00 0.00 79 1016.3
20260505111403 58 249 4.3 7.0 0.00 0.00 0.00 82 1016.4
20260505110900 58 234 0.0 2.6 0.00 0.00 0.00 82 1016.4
20260505110357 58 106 2.6 3.5 0.00 0.00 0.00 82 1016.1
20260505101827 59 219 1.7 4.3 0.00 0.00 0.00 79 1016.0
20260505101323 59 205 2.6 3.5 0.00 0.00 0.00 79 1015.9
20260505100818 59 215 0.0 2.6 0.00 0.00 0.00 79 1015.7
20260505100316 59 242 1.7 3.5 0.00 0.00 0.00 79 1015.8
20260505095811 58 220 1.7 5.2 0.00 0.00 0.00 80 1015.9
20260505095309 59 213 1.7 2.6 0.00 0.00 0.00 80 1015.5
20260505094804 59 170 0.0 3.5 0.00 0.00 0.00 80 1015.6
20260505094302 59 161 1.7 2.6 0.00 0.00 0.00 78 1015.8
20260505093757 59 203 3.5 5.2 0.00 0.00 0.00 78 1015.6
20260505093255 60 249 0.0 2.6 0.00 0.00 0.00 77 1015.6
20260505092751 60 227 1.7 7.0 0.00 0.00 0.00 77 1015.5
20260505092250 60 247 0.0 7.0 0.00 0.00 0.00 76 1015.6
20260505091746 60 229 2.6 2.6 0.00 0.00 0.00 76 1015.7
20260505091244 60 261 1.7 3.5 0.00 0.00 0.00 75 1015.4
20260505090737 61 264 3.5 7.8 0.00 0.00 0.00 75 1015.5
20260505090235 61 258 1.7 3.5 0.00 0.00 0.00 75 1015.6
20260505085732 61 221 1.7 5.2 0.00 0.00 0.00 75 1015.4
20260505085230 61 231 3.5 6.1 0.00 0.00 0.00 74 1015.4
20260505084727 61 211 1.7 5.2 0.00 0.00 0.00 74 1015.3
20260505084226 61 219 2.6 7.8 0.00 0.00 0.00 73 1015.1
20260505083723 61 66 0.9 5.2 0.00 0.00 0.00 73 1015.3
20260505083219 61 227 1.7 6.1 0.00 0.00 0.00 74 1015.1
20260505082715 61 231 3.5 8.7 0.00 0.00 0.00 74 1015.0
20260505082213 62 177 1.7 10.4 0.00 0.00 0.00 73 1015.3
20260505081708 61 204 4.3 7.8 0.00 0.00 0.00 74 1015.3
20260505081206 62 221 0.9 3.5 0.00 0.00 0.00 73 1015.2
20260505080703 62 252 2.6 8.7 0.00 0.00 0.00 73 1015.3
20260505080159 62 239 1.7 6.1 0.00 0.00 0.00 73 1015.1
20260505075655 62 244 3.5 7.8 0.00 0.00 0.00 72 1014.8
20260505075152 62 279 1.7 9.6 0.00 0.00 0.00 72 1015.1
20260505074649 62 219 2.6 4.3 0.00 0.00 0.00 73 1014.9
20260505074146 62 169 3.5 6.1 0.00 0.00 0.00 73 1014.9
20260505073643 62 236 3.5 6.1 0.00 0.00 0.00 73 1015.0
20260505073141 62 245 0.0 7.8 0.00 0.00 0.00 72 1014.8
20260505072636 62 155 1.7 5.2 0.00 0.00 0.00 72 1015.0
20260505072133 62 254 1.7 3.5 0.00 0.00 0.00 73 1015.0
20260505071629 62 206 3.5 7.0 0.00 0.00 0.00 72 1014.9
20260505071127 62 295 3.5 13.9 0.00 0.00 0.00 71 1014.6
20260505070624 62 218 4.3 6.1 0.00 0.00 0.00 72 1014.9
20260505070120 62 316 1.7 8.7 0.00 0.00 0.00 72 1015.0
20260505065616 62 257 4.3 7.8 0.00 0.00 0.00 72 1014.5
20260505065113 63 217 2.6 7.0 0.00 0.00 0.00 71 1014.7
20260505064610 63 242 3.5 7.0 0.00 0.00 0.00 71 1015.1
20260505064109 63 225 2.6 7.0 0.00 0.00 0.00 71 1014.7
20260505063605 63 251 3.5 13.0 0.00 0.00 0.00 71 1014.6
20260505063101 63 302 3.5 5.2 0.00 0.00 0.00 71 1014.8
20260505062557 63 202 2.6 7.0 0.00 0.00 0.00 71 1014.6
20260505062055 63 212 2.6 8.7 0.00 0.00 0.00 71 1014.6
20260505061552 63 257 2.6 6.1 0.00 0.00 0.00 71 1014.8
20260505061050 63 238 0.0 5.2 0.00 0.00 0.00 70 1014.8
20260505060547 63 221 0.9 4.3 0.00 0.00 0.00 70 1014.7
20260505060044 64 240 1.7 6.1 0.00 0.00 0.00 69 1014.7
20260505055539 64 195 2.6 6.1 0.00 0.00 0.00 69 1014.9
20260505055036 64 288 4.3 7.8 0.00 0.00 0.00 69 1014.6
20260505054534 64 254 2.6 3.5 0.00 0.00 0.00 68 1014.6
20260505054032 64 248 3.5 7.0 0.00 0.00 0.00 67 1014.7
20260505053529 64 247 1.7 12.2 0.00 0.00 0.00 67 1014.6
20260505053025 65 250 2.6 10.4 0.00 0.00 0.00 66 1014.9
20260505052522 65 247 4.3 7.0 0.00 0.00 0.00 66 1014.8
20260505052020 65 152 4.3 7.0 0.00 0.00 0.00 65 1014.9
20260505051516 65 247 2.6 5.2 0.00 0.00 0.00 64 1014.8
20260505051015 65 252 2.6 7.8 0.00 0.00 0.00 64 1014.7
20260505050512 65 234 4.3 6.1 0.00 0.00 0.00 64 1014.7
20260505041434 67 221 1.7 6.1 0.00 0.00 0.00 55 1014.7
20260505040931 67 227 3.5 7.8 0.00 0.00 0.00 54 1014.7
20260505040429 67 241 4.3 10.4 0.00 0.00 0.00 53 1014.7
20260505035925 67 253 2.6 7.8 0.00 0.00 0.00 53 1014.5
20260505035421 67 224 3.5 8.7 0.00 0.00 0.00 52 1014.5
20260505034919 67 219 4.3 10.4 0.00 0.00 0.00 52 1014.5
20260505034415 67 250 2.6 6.1 0.00 0.00 0.00 52 1014.6
20260505033912 67 253 5.2 7.8 0.00 0.00 0.00 51 1014.3